Sulphur, LA

9:32 AM CST on December 06, 2016 (GMT -0600)
Sulphur

Weather History for KUXL - February, 2014

Change the Weather History Date:

Monday, February 24, 2014

  Actual Average (KLCH) Record (KLCH)
Temperature  
Mean Temperature 60 °F 57 °F  
Max Temperature 65 °F 67 °F 84 °F (1906)
Min Temperature 55 °F 47 °F 21 °F (1914)
Degree Days  
Heating Degree Days 5 9  
Month to date heating degree days 259  
Since 1 July heating degree days 1250  
Cooling Degree Days 0 1  
Month to date cooling degree days 2  
Year to date cooling degree days 12  
Growing Degree Days 10 (Base 50)    
Moisture  
Dew Point 60 °F    
Average Humidity 90    
Maximum Humidity 100    
Minimum Humidity 78    
Precipitation  
Precipitation 0.01 in 0.11 in 2.18 in (1959)
Month to date precipitation 3.01  
Year to date precipitation 8.24  
Snow  
Snow 0.00 in 0.00 in 0.00 in ()
Month to date snowfall 0.1  
Since 1 July snowfall 0.1  
Snow Depth -    
Sea Level Pressure  
Sea Level Pressure 30.07 in    
Wind  
Wind Speed 4 mph (NE)    
Max Wind Speed 13 mph    
Max Gust Speed 17 mph    
Visibility 7 miles    
Events Fog , Rain    
T = Trace of Precipitation, MM = Missing Value Source: NWS Daily Summary

Daily Weather History Graph

Daily Weather History Graph

Search for Another Location

Airport or City:

Trip Planner

Search our weather history database for the weather conditions in past years. The results will help you decide how hot, cold, wet, or windy it might be!

Date:

Astronomy

Feb. 24, 2014 Rise Set
Actual Time 6:44 AM CST 6:08 PM CST
Civil Twilight 6:20 AM CST 6:33 PM CST
Nautical Twilight 5:52 AM CST 7:01 PM CST
Astronomical Twilight 5:24 AM CST 7:28 PM CST
Moon 2:31 AM CST (2/24) 1:23 PM CST (2/24)
Length of Visible Light 12h 12m
Length of Day
11h 24m
Waning Crescent, 28% of the Moon is Illuminated
Feb 24
Waning Crescent
Mar 1
New
Mar 8
First Quarter
Mar 16
Full
Mar 23
Last Quarter

Hourly Weather History & Observations

Time (CST) Temp. Dew Point Humidity Pressure Visibility Wind Dir Wind Speed Gust Speed Precip Events Conditions
12:15 AM 64.4 °F 64.4 °F 100% 30.01 in 0.2 mi Calm Calm - N/A Fog Fog
12:35 AM 63.9 °F 63.9 °F 100% 30.01 in 0.2 mi Calm Calm - N/A Fog Fog
12:55 AM 63.1 °F 63.1 °F 100% 30.01 in 0.2 mi Calm Calm - N/A Fog Fog
1:15 AM 62.8 °F 62.8 °F 100% 30.01 in 0.2 mi Calm Calm - N/A Fog Fog
1:35 AM 63.0 °F 63.0 °F 100% 30.01 in 0.2 mi Calm Calm - N/A Fog Fog
1:55 AM 63.5 °F 63.5 °F 100% 30.02 in 0.5 mi Calm Calm - N/A Fog Fog
2:15 AM 63.5 °F 63.5 °F 100% 30.01 in 0.5 mi Calm Calm - N/A Fog Fog
2:35 AM 63.7 °F 63.7 °F 100% 30.01 in 0.5 mi Calm Calm - N/A Fog Fog
2:55 AM 63.9 °F 63.9 °F 100% 30.01 in 0.2 mi Calm Calm - N/A Fog Fog
3:15 AM 64.4 °F 64.4 °F 100% 30.02 in 0.2 mi Calm Calm - N/A Fog Fog
3:35 AM 64.4 °F 64.4 °F 100% 30.03 in 0.5 mi North 5.8 mph - N/A Fog Fog
3:55 AM 64.0 °F 64.0 °F 100% 30.03 in 0.8 mi North 4.6 mph - N/A   Overcast
4:15 AM 64.0 °F 64.0 °F 100% 30.03 in 1.8 mi North 4.6 mph - N/A   Overcast
4:35 AM 63.9 °F 63.9 °F 100% 30.03 in 1.5 mi North 5.8 mph - N/A   Overcast
4:55 AM 63.7 °F 63.7 °F 100% 30.04 in 3.0 mi NNE 5.8 mph - N/A   Overcast
5:15 AM 63.7 °F 63.7 °F 100% 30.05 in 1.0 mi NNE 5.8 mph - N/A   Overcast
5:35 AM 63.7 °F 63.7 °F 100% 30.05 in 2.5 mi NNE 4.6 mph - N/A   Overcast
5:55 AM 63.7 °F 63.7 °F 100% 30.05 in 3.0 mi North 5.8 mph - N/A   Overcast
6:15 AM 63.5 °F 63.5 °F 100% 30.06 in 5.0 mi North 6.9 mph - N/A   Overcast
6:35 AM 62.2 °F 62.2 °F 100% 30.07 in 4.0 mi NNE 10.4 mph - 0.01 in Rain Light Rain
6:55 AM 60.1 °F 60.1 °F 100% 30.08 in 5.0 mi NNE 9.2 mph - 0.01 in   Overcast
7:15 AM 58.3 °F 58.3 °F 100% 30.09 in 4.0 mi North 9.2 mph - N/A   Overcast
7:35 AM 58.1 °F 58.1 °F 100% 30.09 in 4.0 mi NE 9.2 mph - N/A   Overcast
7:55 AM 57.2 °F 57.2 °F 100% 30.10 in 2.5 mi NE 11.5 mph - N/A   Overcast
8:15 AM 56.8 °F 56.8 °F 100% 30.11 in 5.0 mi NE 9.2 mph - N/A   Overcast
8:35 AM 55.8 °F 55.8 °F 100% 30.11 in 7.0 mi NNE 12.7 mph 17.3 mph N/A   Overcast
8:55 AM 56.5 °F 56.5 °F 100% 30.12 in 7.0 mi NE 8.1 mph - N/A   Overcast
9:15 AM 57.2 °F 55.4 °F 94% 30.13 in 7.0 mi NE 11.5 mph 16.1 mph N/A   Overcast
9:35 AM 57.9 °F 54.9 °F 90% 30.14 in 10.0 mi NE 9.2 mph - N/A   Overcast
9:55 AM 58.8 °F 55.6 °F 89% 30.14 in 10.0 mi NE 9.2 mph - N/A   Overcast
10:15 AM 59.0 °F 55.6 °F 88% 30.15 in 10.0 mi ENE 8.1 mph - N/A   Overcast
10:35 AM 59.2 °F 55.6 °F 88% 30.14 in 10.0 mi NE 9.2 mph - N/A   Overcast
10:55 AM 60.1 °F 55.9 °F 86% 30.14 in 10.0 mi NNE 8.1 mph - N/A   Overcast
11:15 AM 60.6 °F 56.7 °F 87% 30.14 in 10.0 mi ENE 6.9 mph - N/A   Overcast
11:35 AM 61.0 °F 56.7 °F 86% 30.14 in 10.0 mi ENE 6.9 mph - N/A   Overcast
11:55 AM 61.3 °F 56.5 °F 84% 30.14 in 10.0 mi NE 5.8 mph - N/A   Overcast
12:15 PM 62.4 °F 57.2 °F 83% 30.11 in 10.0 mi NE 4.6 mph - N/A   Overcast
12:35 PM 63.3 °F 57.9 °F 83% 30.11 in 10.0 mi NNE 8.1 mph - N/A   Overcast
1:00 PM 63.0 °F 56.8 °F 80% 30.10 in 10.0 mi NE 4.6 mph - N/A   Overcast
1:15 PM 62.6 °F 56.5 °F 80% 30.09 in 10.0 mi East 5.8 mph - N/A   Overcast
1:35 PM 63.5 °F 57.4 °F 80% 30.07 in 10.0 mi ESE 8.1 mph - N/A   Overcast
1:55 PM 63.0 °F 57.4 °F 82% 30.07 in 10.0 mi East 4.6 mph - N/A   Overcast
2:15 PM 63.5 °F 57.2 °F 80% 30.08 in 10.0 mi North 3.5 mph - N/A   Overcast
2:35 PM 63.5 °F 57.6 °F 81% 30.06 in 10.0 mi NE 5.8 mph - N/A   Overcast
2:55 PM 63.7 °F 57.7 °F 81% 30.06 in 10.0 mi NNE 5.8 mph - N/A   Overcast
3:15 PM 63.9 °F 57.7 °F 80% 30.06 in 10.0 mi NNE 6.9 mph - N/A   Overcast
3:35 PM 64.6 °F 58.3 °F 80% 30.06 in 10.0 mi NNE 3.5 mph - N/A   Overcast
3:55 PM 65.3 °F 58.5 °F 78% 30.05 in 10.0 mi NE 4.6 mph - N/A   Overcast
4:15 PM 65.3 °F 58.5 °F 78% 30.05 in 7.0 mi NE 6.9 mph - N/A   Overcast
4:35 PM 65.3 °F 58.8 °F 80% 30.04 in 7.0 mi NNE 6.9 mph - N/A   Overcast
4:55 PM 65.3 °F 58.3 °F 78% 30.04 in 10.0 mi NE 6.9 mph - N/A   Overcast
5:15 PM 65.3 °F 58.6 °F 79% 30.05 in 10.0 mi NNE 3.5 mph - N/A   Overcast
5:35 PM 65.1 °F 59.0 °F 81% 30.05 in 10.0 mi NNE 3.5 mph - N/A   Overcast
5:55 PM 65.3 °F 58.8 °F 80% 30.06 in 10.0 mi Calm Calm - N/A   Overcast
6:15 PM 64.8 °F 59.4 °F 83% 30.06 in 10.0 mi Calm Calm - N/A   Overcast
6:35 PM 64.6 °F 59.7 °F 84% 30.08 in 10.0 mi Calm Calm - N/A   Overcast
6:55 PM 64.8 °F 59.9 °F 84% 30.08 in 7.0 mi Calm Calm - N/A   Overcast
7:15 PM 64.4 °F 59.5 °F 84% 30.09 in 10.0 mi Calm Calm - N/A   Overcast
7:35 PM 64.2 °F 59.4 °F 84% 30.09 in 10.0 mi Calm Calm - N/A   Overcast
7:55 PM 64.0 °F 59.9 °F 86% 30.09 in 10.0 mi Calm Calm - N/A   Overcast
8:15 PM 64.2 °F 59.4 °F 84% 30.09 in 10.0 mi Calm Calm - N/A   Overcast
8:35 PM 64.4 °F 59.2 °F 83% 30.10 in 10.0 mi Calm Calm - N/A   Overcast
8:55 PM 64.0 °F 59.2 °F 84% 30.09 in 10.0 mi NE 3.5 mph - N/A   Overcast
9:15 PM 64.2 °F 59.0 °F 83% 30.08 in 10.0 mi NE 3.5 mph - N/A   Overcast
9:35 PM 63.9 °F 59.2 °F 85% 30.07 in 10.0 mi ENE 3.5 mph - N/A   Overcast
9:55 PM 63.7 °F 59.4 °F 86% 30.07 in 10.0 mi ENE 3.5 mph - N/A   Overcast
10:15 PM 63.7 °F 59.4 °F 86% 30.07 in 10.0 mi East 4.6 mph - N/A   Overcast
10:35 PM 63.7 °F 59.7 °F 87% 30.07 in 10.0 mi East 4.6 mph - N/A   Overcast
10:55 PM 63.5 °F 59.5 °F 87% 30.06 in 10.0 mi East 5.8 mph - N/A   Overcast
11:15 PM 62.8 °F 59.9 °F 90% 30.06 in 10.0 mi Calm Calm - N/A   Mostly Cloudy
11:35 PM 63.3 °F 60.8 °F 91% 30.06 in 10.0 mi Calm Calm - N/A   Overcast
11:55 PM 63.5 °F 61.3 °F 93% 30.05 in 7.0 mi East 3.5 mph - N/A   Overcast